Location: Biltmore Gardens
(41.6070°N, 83.4666°W)
Time: 14:09:33
(UTC+00:00)

IRS-P3 - Pass Details

Date: 14 July 2020
Orbit: 814 x 819 km, 98.8° (Epoch: 04 August)

Event Time Altitude Azimuth Distance (km) Brightness Sun altitude
Rises 08:35:52 0° 8° (N) 3,351 8.3 -14.8°
Reaches altitude 10° 08:38:16 10° 4° (N) 2,415 7.4 -14.5°
Maximum altitude 08:43:26 52° 289° (WNW) 1,006 4.4 -13.9°
Enters shadow 08:47:05 19° 220° (SW) 1,850 5.3 -13.4°
